Location: Unspecified
(41.1637°N, 24.2901°E)
Time: 17:50:05
(UTC+02:00)

ISS - Pass Details

Date: 19 May 2024
Orbit: 410 x 414 km, 51.6° (Epoch: 18 May)

Event Time Altitude Azimuth Distance (km) Brightness Sun altitude
Rises 22:38:49 0° 310° (NW) 2,348 1.1 -24.5°
Reaches altitude 10° 22:41:09 10° 324° (NW) 1,484 0.0 -24.7°
Enters shadow 22:43:47 25° 16° (NNE) 882 -1.7 -24.9°
